| time (UTC) | temp F | wind direction | speed MPH | gust MPH | rain 1hr in | rain 24hr in | rain mn in | humidity % | barometer mb |
| 20260831042003 | 65 | 0 | 0.0 | 0.0 | 0.00 | 0.06 | 0.00 | 95 | 1019.6 |
| 20260831041718 | 65 | 0 | 0.0 | 0.0 | 0.00 | 0.06 | 0.00 | 95 | 1019.7 |
| 20260831041217 | 65 | 0 | 0.0 | 0.0 | 0.00 | 0.06 | 0.00 | 95 | 1019.7 |
| 20260831040503 | 65 | 0 | 0.0 | 0.0 | 0.00 | 0.06 | 0.00 | 95 | 1019.7 |
| 20260831040004 | 65 | 0 | 0.0 | 0.0 | 0.00 | 0.06 | 0.00 | 95 | 1019.7 |
| 20260831035503 | 65 | 0 | 0.0 | 0.0 | 0.00 | 0.06 | 0.06 | 95 | 1019.7 |
| 20260831035003 | 65 | 0 | 0.0 | 0.0 | 0.00 | 0.06 | 0.06 | 95 | 1019.6 |
| 20260831034503 | 65 | 0 | 0.0 | 0.0 | 0.00 | 0.06 | 0.06 | 95 | 1019.6 |
| 20260831034003 | 65 | 0 | 0.0 | 0.0 | 0.00 | 0.06 | 0.06 | 95 | 1019.6 |
| 20260831033503 | 65 | 0 | 0.0 | 0.0 | 0.00 | 0.06 | 0.06 | 95 | 1019.6 |
| 20260831033003 | 65 | 0 | 0.0 | 0.0 | 0.00 | 0.06 | 0.06 | 95 | 1019.7 |
| 20260831032717 | 65 | 226 | 0.0 | 1.0 | 0.00 | 0.06 | 0.06 | 95 | 1019.8 |
| 20260831032003 | 65 | 226 | 0.0 | 1.0 | 0.00 | 0.06 | 0.06 | 95 | 1019.7 |
| 20260831031718 | 65 | 0 | 0.0 | 0.0 | 0.00 | 0.06 | 0.06 | 95 | 1019.7 |
| 20260831031003 | 65 | 0 | 0.0 | 0.0 | 0.00 | 0.06 | 0.06 | 95 | 1019.9 |
| 20260831030503 | 65 | 0 | 0.0 | 0.0 | 0.00 | 0.06 | 0.06 | 95 | 1019.9 |
| 20260831030003 | 65 | 0 | 0.0 | 0.0 | 0.00 | 0.06 | 0.06 | 95 | 1019.9 |
| 20260831025717 | 65 | 226 | 0.0 | 1.0 | 0.00 | 0.06 | 0.06 | 95 | 1019.9 |
| 20260831025003 | 65 | 226 | 0.0 | 1.0 | 0.00 | 0.06 | 0.06 | 95 | 1019.9 |
| 20260831024503 | 65 | 0 | 0.0 | 0.0 | 0.00 | 0.06 | 0.06 | 95 | 1019.9 |
| 20260831024218 | 65 | 0 | 0.0 | 0.0 | 0.00 | 0.06 | 0.06 | 95 | 1020.0 |
| 20260831023503 | 65 | 0 | 0.0 | 0.0 | 0.00 | 0.06 | 0.06 | 95 | 1019.8 |
| 20260831023003 | 64 | 226 | 0.0 | 1.0 | 0.00 | 0.06 | 0.06 | 95 | 1019.6 |
| 20260831022503 | 64 | 226 | 0.0 | 1.0 | 0.00 | 0.06 | 0.06 | 95 | 1019.4 |
| 20260831022003 | 65 | 226 | 0.0 | 1.0 | 0.00 | 0.06 | 0.06 | 95 | 1019.5 |
| 20260831021503 | 64 | 226 | 0.0 | 2.0 | 0.00 | 0.06 | 0.06 | 94 | 1019.7 |
| 20260831021003 | 64 | 226 | 0.0 | 2.0 | 0.00 | 0.06 | 0.06 | 94 | 1019.7 |
| 20260831020717 | 64 | 0 | 0.0 | 0.0 | 0.00 | 0.06 | 0.06 | 94 | 1019.7 |
| 20260831020218 | 64 | 0 | 0.0 | 0.0 | 0.00 | 0.06 | 0.06 | 94 | 1019.6 |
| 20260831015503 | 64 | 275 | 0.0 | 3.0 | 0.00 | 0.06 | 0.06 | 94 | 1019.6 |
| 20260831015003 | 64 | 275 | 0.0 | 3.0 | 0.00 | 0.06 | 0.06 | 94 | 1019.7 |
| 20260831014503 | 64 | 0 | 0.0 | 0.0 | 0.00 | 0.06 | 0.06 | 94 | 1019.7 |
| 20260831014003 | 64 | 57 | 0.0 | 1.0 | 0.00 | 0.06 | 0.06 | 94 | 1019.7 |
| 20260831013717 | 64 | 57 | 0.0 | 1.0 | 0.00 | 0.06 | 0.06 | 94 | 1019.6 |
| 20260831013003 | 64 | 57 | 0.0 | 1.0 | 0.00 | 0.06 | 0.06 | 94 | 1019.7 |
| 20260831012503 | 64 | 57 | 0.0 | 1.0 | 0.00 | 0.06 | 0.06 | 94 | 1019.8 |
| 20260831012003 | 64 | 57 | 0.0 | 1.0 | 0.00 | 0.06 | 0.06 | 94 | 1019.7 |
| 20260831011503 | 64 | 0 | 0.0 | 0.0 | 0.00 | 0.06 | 0.06 | 94 | 1019.6 |
| 20260831011003 | 64 | 0 | 0.0 | 0.0 | 0.00 | 0.06 | 0.06 | 94 | 1019.6 |
| 20260831010504 | 64 | 0 | 0.0 | 0.0 | 0.00 | 0.06 | 0.06 | 94 | 1019.6 |
| 20260831010003 | 64 | 0 | 0.0 | 0.0 | 0.00 | 0.06 | 0.06 | 94 | 1019.6 |
| 20260831005503 | 64 | 0 | 0.0 | 0.0 | 0.00 | 0.06 | 0.06 | 94 | 1019.5 |
| 20260831005003 | 64 | 0 | 0.0 | 0.0 | 0.00 | 0.06 | 0.06 | 94 | 1019.5 |
| 20260831004503 | 64 | 0 | 0.0 | 0.0 | 0.00 | 0.06 | 0.06 | 94 | 1019.4 |
| 20260831004003 | 64 | 0 | 0.0 | 0.0 | 0.00 | 0.06 | 0.06 | 94 | 1019.2 |
| 20260831003503 | 64 | 0 | 0.0 | 0.0 | 0.00 | 0.06 | 0.06 | 94 | 1019.2 |
| 20260831003003 | 64 | 0 | 0.0 | 0.0 | 0.00 | 0.06 | 0.06 | 94 | 1019.0 |
| 20260831002503 | 64 | 0 | 0.0 | 0.0 | 0.00 | 0.06 | 0.06 | 94 | 1019.0 |
| 20260831002003 | 64 | 0 | 0.0 | 0.0 | 0.00 | 0.06 | 0.06 | 94 | 1019.0 |
| 20260831001503 | 64 | 0 | 0.0 | 0.0 | 0.00 | 0.06 | 0.06 | 94 | 1019.0 |
| 20260831001003 | 64 | 0 | 0.0 | 0.0 | 0.00 | 0.06 | 0.06 | 94 | 1019.0 |
| 20260831000503 | 64 | 0 | 0.0 | 0.0 | 0.00 | 0.06 | 0.06 | 94 | 1019.0 |
| 20260831000003 | 64 | 0 | 0.0 | 0.0 | 0.00 | 0.06 | 0.06 | 94 | 1019.1 |
| 20260830235503 | 64 | 57 | 0.0 | 1.0 | 0.00 | 0.06 | 0.06 | 94 | 1018.9 |
| 20260830235003 | 65 | 57 | 0.0 | 1.0 | 0.00 | 0.06 | 0.06 | 94 | 1019.0 |
| 20260830234718 | 65 | 57 | 0.0 | 1.0 | 0.00 | 0.06 | 0.06 | 94 | 1018.9 |
| 20260830234003 | 65 | 0 | 0.0 | 0.0 | 0.00 | 0.06 | 0.06 | 94 | 1018.9 |
| 20260830233503 | 65 | 0 | 0.0 | 0.0 | 0.00 | 0.06 | 0.06 | 94 | 1019.0 |
| 20260830233003 | 65 | 0 | 0.0 | 0.0 | 0.00 | 0.06 | 0.06 | 94 | 1019.0 |
| 20260830232503 | 65 | 0 | 0.0 | 0.0 | 0.00 | 0.06 | 0.06 | 94 | 1018.9 |
| 20260830232217 | 65 | 0 | 0.0 | 0.0 | 0.00 | 0.06 | 0.06 | 94 | 1018.9 |
| 20260830231503 | 65 | 0 | 0.0 | 0.0 | 0.00 | 0.06 | 0.06 | 94 | 1018.9 |
| 20260830231003 | 65 | 0 | 0.0 | 0.0 | 0.00 | 0.06 | 0.06 | 94 | 1018.9 |
| 20260830230503 | 65 | 0 | 0.0 | 0.0 | 0.00 | 0.06 | 0.06 | 94 | 1019.0 |
| 20260830230003 | 65 | 57 | 0.0 | 1.0 | 0.00 | 0.06 | 0.06 | 94 | 1019.0 |
| 20260830225503 | 65 | 57 | 0.0 | 1.0 | 0.00 | 0.06 | 0.06 | 93 | 1019.1 |
| 20260830225003 | 65 | 0 | 0.0 | 0.0 | 0.00 | 0.06 | 0.06 | 94 | 1019.1 |
| 20260830224503 | 65 | 0 | 0.0 | 0.0 | 0.00 | 0.06 | 0.06 | 94 | 1019.2 |
| 20260830224003 | 65 | 0 | 0.0 | 0.0 | 0.00 | 0.06 | 0.06 | 94 | 1019.1 |
| 20260830223503 | 65 | 0 | 0.0 | 0.0 | 0.00 | 0.06 | 0.06 | 94 | 1019.2 |
| 20260830223003 | 65 | 0 | 0.0 | 0.0 | 0.00 | 0.06 | 0.06 | 94 | 1019.2 |
| 20260830222503 | 65 | 0 | 0.0 | 0.0 | 0.00 | 0.06 | 0.06 | 93 | 1019.2 |
| 20260830222003 | 65 | 0 | 0.0 | 0.0 | 0.00 | 0.06 | 0.06 | 93 | 1019.2 |
| 20260830221503 | 65 | 0 | 0.0 | 0.0 | 0.00 | 0.06 | 0.06 | 93 | 1019.2 |
| 20260830221003 | 65 | 0 | 0.0 | 0.0 | 0.00 | 0.06 | 0.06 | 93 | 1019.2 |
| 20260830220503 | 65 | 0 | 0.0 | 0.0 | 0.00 | 0.06 | 0.06 | 93 | 1019.2 |
| 20260830220003 | 65 | 0 | 0.0 | 0.0 | 0.00 | 0.06 | 0.06 | 93 | 1019.2 |
| 20260830215717 | 65 | 0 | 0.0 | 0.0 | 0.00 | 0.06 | 0.06 | 93 | 1019.2 |
| 20260830215003 | 65 | 0 | 0.0 | 0.0 | 0.00 | 0.06 | 0.06 | 93 | 1019.2 |
| 20260830214503 | 65 | 0 | 0.0 | 0.0 | 0.00 | 0.06 | 0.06 | 93 | 1019.1 |
| 20260830214003 | 65 | 0 | 0.0 | 0.0 | 0.00 | 0.06 | 0.06 | 93 | 1019.1 |
| 20260830213717 | 65 | 0 | 0.0 | 0.0 | 0.00 | 0.06 | 0.06 | 93 | 1019.0 |
| 20260830213003 | 65 | 0 | 0.0 | 0.0 | 0.00 | 0.06 | 0.06 | 93 | 1019.0 |
| 20260830212503 | 65 | 0 | 0.0 | 0.0 | 0.00 | 0.06 | 0.06 | 93 | 1019.0 |
| 20260830212003 | 65 | 0 | 0.0 | 0.0 | 0.00 | 0.06 | 0.06 | 92 | 1019.1 |
| 20260830211503 | 65 | 0 | 0.0 | 0.0 | 0.00 | 0.06 | 0.06 | 92 | 1019.0 |
| 20260830211003 | 65 | 0 | 0.0 | 0.0 | 0.00 | 0.06 | 0.06 | 92 | 1019.2 |
| 20260830210503 | 65 | 0 | 0.0 | 0.0 | 0.01 | 0.06 | 0.06 | 92 | 1019.2 |
| 20260830210218 | 65 | 0 | 0.0 | 0.0 | 0.01 | 0.06 | 0.06 | 92 | 1019.1 |
| 20260830205503 | 65 | 0 | 0.0 | 0.0 | 0.01 | 0.06 | 0.06 | 92 | 1019.1 |
| 20260830205003 | 66 | 0 | 0.0 | 0.0 | 0.02 | 0.06 | 0.06 | 92 | 1019.2 |
| 20260830204503 | 66 | 0 | 0.0 | 0.0 | 0.03 | 0.06 | 0.06 | 92 | 1019.1 |
| 20260830204218 | 66 | 0 | 0.0 | 0.0 | 0.03 | 0.06 | 0.06 | 92 | 1019.1 |
| 20260830203503 | 66 | 0 | 0.0 | 0.0 | 0.03 | 0.06 | 0.06 | 92 | 1019.1 |
| 20260830203003 | 66 | 0 | 0.0 | 0.0 | 0.03 | 0.06 | 0.06 | 92 | 1019.1 |
| 20260830202717 | 66 | 0 | 0.0 | 0.0 | 0.04 | 0.06 | 0.06 | 92 | 1019.1 |
| 20260830202219 | 66 | 57 | 0.0 | 1.0 | 0.04 | 0.06 | 0.06 | 92 | 1019.2 |
| 20260830201717 | 66 | 57 | 0.0 | 1.0 | 0.04 | 0.06 | 0.06 | 92 | 1019.3 |
| 20260830201003 | 66 | 62 | 0.0 | 1.0 | 0.04 | 0.06 | 0.06 | 92 | 1019.3 |
| 20260830200503 | 66 | 70 | 0.0 | 1.0 | 0.03 | 0.05 | 0.05 | 92 | 1019.3 |
| 20260830200003 | 66 | 96 | 0.0 | 1.0 | 0.03 | 0.05 | 0.05 | 92 | 1019.4 |
| 20260830195503 | 66 | 0 | 0.0 | 0.0 | 0.03 | 0.05 | 0.05 | 92 | 1019.4 |
| 20260830195218 | 66 | 0 | 0.0 | 0.0 | 0.02 | 0.04 | 0.04 | 92 | 1019.5 |
| 20260830194503 | 66 | 0 | 0.0 | 0.0 | 0.01 | 0.03 | 0.03 | 92 | 1019.6 |
| 20260830194003 | 67 | 96 | 0.0 | 1.0 | 0.01 | 0.03 | 0.03 | 92 | 1019.6 |
| 20260830193503 | 67 | 91 | 0.0 | 1.0 | 0.01 | 0.03 | 0.03 | 91 | 1019.6 |
| 20260830193218 | 67 | 87 | 0.0 | 1.0 | 0.01 | 0.03 | 0.03 | 91 | 1019.6 |
| 20260830192503 | 67 | 137 | 0.0 | 2.0 | 0.00 | 0.02 | 0.02 | 91 | 1019.5 |
| 20260830192003 | 67 | 118 | 0.0 | 2.0 | 0.00 | 0.02 | 0.02 | 91 | 1019.5 |
| 20260830191503 | 67 | 272 | 0.0 | 1.0 | 0.00 | 0.02 | 0.02 | 91 | 1019.5 |
| 20260830191003 | 67 | 258 | 0.0 | 2.0 | 0.00 | 0.02 | 0.02 | 92 | 1019.5 |
| 20260830190503 | 67 | 254 | 0.0 | 2.0 | 0.00 | 0.02 | 0.02 | 91 | 1019.6 |
| 20260830190003 | 67 | 236 | 1.0 | 2.0 | 0.00 | 0.02 | 0.02 | 91 | 1019.7 |
| 20260830185503 | 67 | 222 | 1.0 | 2.0 | 0.00 | 0.02 | 0.02 | 91 | 1019.6 |
| 20260830185003 | 68 | 224 | 1.0 | 3.0 | 0.00 | 0.02 | 0.02 | 91 | 1019.7 |
| 20260830184503 | 68 | 198 | 1.0 | 3.0 | 0.00 | 0.02 | 0.02 | 92 | 1019.8 |
| 20260830184003 | 68 | 202 | 1.0 | 3.0 | 0.00 | 0.02 | 0.02 | 93 | 1019.7 |
| 20260830183503 | 68 | 212 | 1.0 | 3.0 | 0.00 | 0.02 | 0.02 | 93 | 1019.8 |
| 20260830183003 | 68 | 181 | 0.0 | 2.0 | 0.00 | 0.02 | 0.02 | 94 | 1020.0 |
| 20260830182503 | 68 | 0 | 0.0 | 0.0 | 0.00 | 0.02 | 0.02 | 94 | 1019.9 |
| 20260830182217 | 68 | 0 | 0.0 | 0.0 | 0.00 | 0.02 | 0.02 | 93 | 1020.0 |
| 20260830181718 | 68 | 0 | 0.0 | 0.0 | 0.00 | 0.02 | 0.02 | 93 | 1020.1 |
| 20260830181003 | 68 | 0 | 0.0 | 0.0 | 0.00 | 0.02 | 0.02 | 93 | 1020.1 |
| 20260830180503 | 68 | 0 | 0.0 | 0.0 | 0.00 | 0.02 | 0.02 | 93 | 1020.1 |
| 20260830180004 | 68 | 0 | 0.0 | 0.0 | 0.00 | 0.02 | 0.02 | 93 | 1020.0 |
| 20260830175503 | 68 | 0 | 0.0 | 0.0 | 0.00 | 0.02 | 0.02 | 93 | 1020.0 |
| 20260830175006 | 68 | 0 | 0.0 | 0.0 | 0.00 | 0.02 | 0.02 | 93 | 1020.0 |
| 20260830174503 | 68 | 0 | 0.0 | 0.0 | 0.00 | 0.02 | 0.02 | 93 | 1019.9 |
| 20260830174003 | 67 | 0 | 0.0 | 0.0 | 0.00 | 0.02 | 0.02 | 93 | 1019.9 |
| 20260830173503 | 67 | 0 | 0.0 | 0.0 | 0.00 | 0.02 | 0.02 | 93 | 1019.9 |
| 20260830173003 | 67 | 0 | 0.0 | 0.0 | 0.00 | 0.02 | 0.02 | 93 | 1019.9 |
| 20260830172503 | 67 | 0 | 0.0 | 0.0 | 0.00 | 0.02 | 0.02 | 93 | 1019.9 |
| 20260830172003 | 67 | 49 | 0.0 | 2.0 | 0.00 | 0.02 | 0.02 | 93 | 1019.9 |
| 20260830171503 | 67 | 49 | 0.0 | 2.0 | 0.00 | 0.02 | 0.02 | 93 | 1019.8 |
| 20260830171003 | 67 | 49 | 0.0 | 2.0 | 0.00 | 0.02 | 0.02 | 93 | 1019.7 |
| 20260830170503 | 67 | 49 | 0.0 | 2.0 | 0.00 | 0.02 | 0.02 | 93 | 1019.8 |
| 20260830170003 | 67 | 49 | 0.0 | 1.0 | 0.00 | 0.02 | 0.02 | 93 | 1019.8 |
| 20260830165503 | 67 | 49 | 0.0 | 2.0 | 0.00 | 0.02 | 0.02 | 93 | 1019.9 |
| 20260830165003 | 67 | 49 | 0.0 | 2.0 | 0.00 | 0.02 | 0.02 | 93 | 1019.9 |
| 20260830164503 | 67 | 49 | 0.0 | 1.0 | 0.00 | 0.02 | 0.02 | 94 | 1019.8 |
| 20260830164216 | 67 | 0 | 0.0 | 0.0 | 0.01 | 0.02 | 0.02 | 94 | 1019.9 |
| 20260830163503 | 66 | 0 | 0.0 | 0.0 | 0.01 | 0.02 | 0.02 | 93 | 1019.9 |
| 20260830163003 | 66 | 0 | 0.0 | 0.0 | 0.01 | 0.02 | 0.02 | 93 | 1019.8 |
| 20260830162503 | 66 | 0 | 0.0 | 0.0 | 0.02 | 0.02 | 0.02 | 93 | 1019.9 |
| 20260830162216 | 66 | 0 | 0.0 | 0.0 | 0.02 | 0.02 | 0.02 | 93 | 1019.9 |
| 20260830161503 | 66 | 49 | 0.0 | 1.0 | 0.02 | 0.02 | 0.02 | 93 | 1019.9 |
| 20260830161004 | 66 | 49 | 0.0 | 1.0 | 0.02 | 0.02 | 0.02 | 93 | 1020.1 |
| 20260830160503 | 66 | 0 | 0.0 | 0.0 | 0.02 | 0.02 | 0.02 | 93 | 1020.1 |
| 20260830160003 | 66 | 0 | 0.0 | 0.0 | 0.02 | 0.02 | 0.02 | 93 | 1020.2 |
| 20260830155503 | 66 | 59 | 0.0 | 1.0 | 0.02 | 0.02 | 0.02 | 93 | 1020.4 |
| 20260830155003 | 66 | 59 | 0.0 | 1.0 | 0.02 | 0.02 | 0.02 | 93 | 1020.3 |
| 20260830154503 | 66 | 0 | 0.0 | 0.0 | 0.02 | 0.02 | 0.02 | 93 | 1020.2 |
| 20260830154003 | 66 | 188 | 0.0 | 1.0 | 0.01 | 0.01 | 0.01 | 93 | 1020.2 |
| 20260830153503 | 66 | 188 | 0.0 | 1.0 | 0.01 | 0.01 | 0.01 | 93 | 1020.3 |
| 20260830153003 | 66 | 188 | 0.0 | 1.0 | 0.01 | 0.01 | 0.01 | 92 | 1020.4 |
| 20260830152503 | 66 | 188 | 0.0 | 1.0 | 0.00 | 0.00 | 0.00 | 92 | 1020.3 |
| 20260830152003 | 65 | 188 | 0.0 | 1.0 | 0.00 | 0.00 | 0.00 | 91 | 1020.2 |
| 20260830151503 | 66 | 188 | 0.0 | 1.0 | 0.00 | 0.00 | 0.00 | 91 | 1020.1 |
| 20260830151003 | 65 | 0 | 0.0 | 0.0 | 0.00 | 0.00 | 0.00 | 91 | 1020.0 |
| 20260830150717 | 65 | 0 | 0.0 | 0.0 | 0.00 | 0.00 | 0.00 | 91 | 1019.9 |
| 20260830150003 | 65 | 0 | 0.0 | 0.0 | 0.00 | 0.00 | 0.00 | 91 | 1019.9 |
| 20260830145503 | 65 | 0 | 0.0 | 0.0 | 0.00 | 0.00 | 0.00 | 91 | 1020.0 |
| 20260830145003 | 65 | 0 | 0.0 | 0.0 | 0.00 | 0.00 | 0.00 | 91 | 1019.9 |
| 20260830144503 | 65 | 0 | 0.0 | 0.0 | 0.00 | 0.00 | 0.00 | 91 | 1019.9 |
| 20260830144003 | 65 | 0 | 0.0 | 0.0 | 0.00 | 0.00 | 0.00 | 91 | 1019.7 |
| 20260830143503 | 65 | 0 | 0.0 | 0.0 | 0.00 | 0.00 | 0.00 | 91 | 1019.6 |
| 20260830143003 | 65 | 0 | 0.0 | 0.0 | 0.00 | 0.00 | 0.00 | 90 | 1019.6 |
| 20260830142503 | 65 | 0 | 0.0 | 0.0 | 0.00 | 0.00 | 0.00 | 90 | 1019.5 |
| 20260830142003 | 65 | 0 | 0.0 | 0.0 | 0.00 | 0.00 | 0.00 | 90 | 1019.4 |
| 20260830141716 | 65 | 0 | 0.0 | 0.0 | 0.00 | 0.00 | 0.00 | 90 | 1019.4 |
| 20260830141003 | 65 | 0 | 0.0 | 0.0 | 0.00 | 0.00 | 0.00 | 90 | 1019.4 |
| 20260830140503 | 65 | 0 | 0.0 | 0.0 | 0.00 | 0.00 | 0.00 | 90 | 1019.3 |
| 20260830140003 | 65 | 0 | 0.0 | 0.0 | 0.00 | 0.00 | 0.00 | 90 | 1019.4 |
| 20260830135503 | 65 | 0 | 0.0 | 0.0 | 0.00 | 0.00 | 0.00 | 90 | 1019.3 |
| 20260830135003 | 64 | 188 | 0.0 | 1.0 | 0.00 | 0.00 | 0.00 | 90 | 1019.3 |
| 20260830134503 | 64 | 188 | 0.0 | 1.0 | 0.00 | 0.00 | 0.00 | 91 | 1019.3 |
| 20260830134003 | 64 | 0 | 0.0 | 0.0 | 0.00 | 0.00 | 0.00 | 91 | 1019.2 |
| 20260830133503 | 64 | 0 | 0.0 | 0.0 | 0.00 | 0.00 | 0.00 | 91 | 1019.2 |
| 20260830133003 | 64 | 0 | 0.0 | 0.0 | 0.00 | 0.00 | 0.00 | 91 | 1019.3 |
| 20260830132503 | 64 | 188 | 0.0 | 1.0 | 0.00 | 0.00 | 0.00 | 91 | 1019.2 |
| 20260830132003 | 64 | 188 | 0.0 | 1.0 | 0.00 | 0.00 | 0.00 | 91 | 1019.2 |
| 20260830131503 | 64 | 0 | 0.0 | 0.0 | 0.00 | 0.00 | 0.00 | 90 | 1019.0 |
| 20260830131003 | 64 | 188 | 0.0 | 1.0 | 0.00 | 0.00 | 0.00 | 91 | 1019.0 |
| 20260830130503 | 64 | 188 | 0.0 | 1.0 | 0.00 | 0.00 | 0.00 | 91 | 1019.0 |
| 20260830130003 | 64 | 0 | 0.0 | 0.0 | 0.00 | 0.00 | 0.00 | 91 | 1019.2 |
| 20260830125503 | 64 | 188 | 0.0 | 1.0 | 0.00 | 0.00 | 0.00 | 91 | 1019.3 |
| 20260830125003 | 64 | 188 | 0.0 | 1.0 | 0.00 | 0.00 | 0.00 | 91 | 1019.3 |
| 20260830124503 | 64 | 0 | 0.0 | 0.0 | 0.00 | 0.00 | 0.00 | 91 | 1019.3 |
| 20260830124003 | 64 | 0 | 0.0 | 0.0 | 0.00 | 0.00 | 0.00 | 91 | 1019.3 |
| 20260830123503 | 63 | 0 | 0.0 | 0.0 | 0.00 | 0.00 | 0.00 | 91 | 1019.3 |
| 20260830123003 | 63 | 0 | 0.0 | 0.0 | 0.00 | 0.00 | 0.00 | 91 | 1019.1 |
| 20260830122503 | 63 | 0 | 0.0 | 0.0 | 0.00 | 0.00 | 0.00 | 90 | 1019.1 |
| 20260830122003 | 63 | 0 | 0.0 | 0.0 | 0.00 | 0.00 | 0.00 | 90 | 1019.2 |
| 20260830121503 | 63 | 0 | 0.0 | 0.0 | 0.00 | 0.00 | 0.00 | 90 | 1019.3 |
| 20260830121217 | 63 | 0 | 0.0 | 0.0 | 0.00 | 0.00 | 0.00 | 90 | 1019.4 |
| 20260830120503 | 63 | 0 | 0.0 | 0.0 | 0.00 | 0.00 | 0.00 | 90 | 1019.4 |
| 20260830120003 | 63 | 0 | 0.0 | 0.0 | 0.00 | 0.00 | 0.00 | 90 | 1019.2 |
| 20260830115503 | 63 | 0 | 0.0 | 0.0 | 0.00 | 0.00 | 0.00 | 90 | 1019.2 |
| 20260830115003 | 63 | 0 | 0.0 | 0.0 | 0.00 | 0.00 | 0.00 | 90 | 1019.1 |
| 20260830114503 | 63 | 0 | 0.0 | 0.0 | 0.00 | 0.00 | 0.00 | 90 | 1018.9 |
| 20260830114003 | 62 | 0 | 0.0 | 0.0 | 0.00 | 0.00 | 0.00 | 90 | 1019.0 |
| 20260830113503 | 62 | 0 | 0.0 | 0.0 | 0.00 | 0.00 | 0.00 | 90 | 1019.0 |
| 20260830113003 | 62 | 0 | 0.0 | 0.0 | 0.00 | 0.00 | 0.00 | 90 | 1019.1 |
| 20260830112503 | 62 | 0 | 0.0 | 0.0 | 0.00 | 0.00 | 0.00 | 89 | 1019.2 |
| 20260830112003 | 62 | 0 | 0.0 | 0.0 | 0.00 | 0.00 | 0.00 | 90 | 1019.2 |
| 20260830111503 | 62 | 0 | 0.0 | 0.0 | 0.00 | 0.00 | 0.00 | 90 | 1019.0 |
| 20260830111003 | 62 | 0 | 0.0 | 0.0 | 0.00 | 0.00 | 0.00 | 90 | 1019.1 |
| 20260830110503 | 62 | 0 | 0.0 | 0.0 | 0.00 | 0.00 | 0.00 | 89 | 1019.3 |
| 20260830110004 | 62 | 0 | 0.0 | 0.0 | 0.00 | 0.00 | 0.00 | 89 | 1019.3 |
| 20260830105503 | 63 | 0 | 0.0 | 0.0 | 0.00 | 0.00 | 0.00 | 90 | 1019.4 |
| 20260830105003 | 63 | 0 | 0.0 | 0.0 | 0.00 | 0.00 | 0.00 | 89 | 1019.2 |
| 20260830104503 | 63 | 0 | 0.0 | 0.0 | 0.00 | 0.00 | 0.00 | 90 | 1019.3 |
| 20260830104003 | 63 | 0 | 0.0 | 0.0 | 0.00 | 0.00 | 0.00 | 89 | 1019.2 |
| 20260830103503 | 63 | 0 | 0.0 | 0.0 | 0.00 | 0.00 | 0.00 | 90 | 1019.1 |
| 20260830103003 | 63 | 0 | 0.0 | 0.0 | 0.00 | 0.00 | 0.00 | 89 | 1019.1 |
| 20260830102503 | 63 | 0 | 0.0 | 0.0 | 0.00 | 0.00 | 0.00 | 89 | 1019.1 |
| 20260830102003 | 63 | 0 | 0.0 | 0.0 | 0.00 | 0.00 | 0.00 | 88 | 1019.1 |
| 20260830101503 | 63 | 0 | 0.0 | 0.0 | 0.00 | 0.00 | 0.00 | 88 | 1019.2 |
| 20260830101003 | 63 | 0 | 0.0 | 0.0 | 0.00 | 0.00 | 0.00 | 88 | 1019.2 |
| 20260830100503 | 63 | 0 | 0.0 | 0.0 | 0.00 | 0.00 | 0.00 | 88 | 1019.2 |
| 20260830100003 | 63 | 0 | 0.0 | 0.0 | 0.00 | 0.00 | 0.00 | 87 | 1019.2 |
| 20260830095503 | 63 | 0 | 0.0 | 0.0 | 0.00 | 0.00 | 0.00 | 88 | 1019.1 |
| 20260830095003 | 63 | 0 | 0.0 | 0.0 | 0.00 | 0.00 | 0.00 | 88 | 1019.1 |
| 20260830094503 | 63 | 0 | 0.0 | 0.0 | 0.00 | 0.00 | 0.00 | 88 | 1019.1 |
| 20260830094004 | 63 | 0 | 0.0 | 0.0 | 0.00 | 0.00 | 0.00 | 88 | 1019.1 |
| 20260830093503 | 63 | 0 | 0.0 | 0.0 | 0.00 | 0.00 | 0.00 | 88 | 1019.1 |
| 20260830093003 | 63 | 0 | 0.0 | 0.0 | 0.00 | 0.00 | 0.00 | 88 | 1019.1 |
| 20260830092503 | 63 | 0 | 0.0 | 0.0 | 0.00 | 0.00 | 0.00 | 88 | 1019.0 |
| 20260830092003 | 63 | 0 | 0.0 | 0.0 | 0.00 | 0.00 | 0.00 | 88 | 1019.2 |
| 20260830091503 | 63 | 0 | 0.0 | 0.0 | 0.00 | 0.00 | 0.00 | 88 | 1019.1 |
| 20260830091003 | 63 | 0 | 0.0 | 0.0 | 0.00 | 0.00 | 0.00 | 87 | 1019.2 |
| 20260830090503 | 63 | 0 | 0.0 | 0.0 | 0.00 | 0.00 | 0.00 | 87 | 1019.2 |
| 20260830090004 | 63 | 0 | 0.0 | 0.0 | 0.00 | 0.00 | 0.00 | 87 | 1019.1 |
| 20260830085503 | 62 | 0 | 0.0 | 0.0 | 0.00 | 0.00 | 0.00 | 87 | 1019.2 |
| 20260830085003 | 62 | 0 | 0.0 | 0.0 | 0.00 | 0.00 | 0.00 | 87 | 1019.3 |
| 20260830084717 | 62 | 0 | 0.0 | 0.0 | 0.00 | 0.00 | 0.00 | 87 | 1019.4 |
| 20260830084003 | 62 | 0 | 0.0 | 0.0 | 0.00 | 0.00 | 0.00 | 88 | 1019.5 |
| 20260830083503 | 62 | 169 | 0.0 | 1.0 | 0.00 | 0.00 | 0.00 | 88 | 1019.4 |
| 20260830083003 | 62 | 169 | 0.0 | 1.0 | 0.00 | 0.00 | 0.00 | 88 | 1019.4 |
| 20260830082503 | 62 | 169 | 0.0 | 1.0 | 0.00 | 0.00 | 0.00 | 89 | 1019.5 |
| 20260830082003 | 62 | 0 | 0.0 | 0.0 | 0.00 | 0.00 | 0.00 | 90 | 1019.6 |
| 20260830081503 | 62 | 0 | 0.0 | 0.0 | 0.00 | 0.00 | 0.00 | 90 | 1019.6 |
| 20260830081003 | 62 | 169 | 0.0 | 1.0 | 0.00 | 0.00 | 0.00 | 90 | 1019.7 |
| 20260830080503 | 62 | 169 | 0.0 | 1.0 | 0.00 | 0.00 | 0.00 | 90 | 1019.7 |
| 20260830080003 | 62 | 0 | 0.0 | 0.0 | 0.00 | 0.00 | 0.00 | 89 | 1019.8 |
| 20260830075718 | 62 | 0 | 0.0 | 0.0 | 0.00 | 0.00 | 0.00 | 89 | 1019.7 |
| 20260830075003 | 62 | 0 | 0.0 | 0.0 | 0.00 | 0.00 | 0.00 | 89 | 1019.7 |
| 20260830074718 | 62 | 0 | 0.0 | 0.0 | 0.00 | 0.00 | 0.00 | 89 | 1019.8 |
| 20260830074003 | 62 | 0 | 0.0 | 0.0 | 0.00 | 0.00 | 0.00 | 90 | 1019.7 |
| 20260830073503 | 62 | 0 | 0.0 | 0.0 | 0.00 | 0.00 | 0.00 | 90 | 1019.7 |
| 20260830073003 | 63 | 0 | 0.0 | 0.0 | 0.00 | 0.00 | 0.00 | 90 | 1019.7 |
| 20260830072503 | 63 | 0 | 0.0 | 0.0 | 0.00 | 0.00 | 0.00 | 90 | 1019.7 |
| 20260830072217 | 63 | 0 | 0.0 | 0.0 | 0.00 | 0.00 | 0.00 | 90 | 1019.7 |
| 20260830071503 | 63 | 0 | 0.0 | 0.0 | 0.00 | 0.00 | 0.00 | 89 | 1019.8 |
| 20260830071003 | 63 | 0 | 0.0 | 0.0 | 0.00 | 0.00 | 0.00 | 89 | 1019.9 |
| 20260830070503 | 63 | 0 | 0.0 | 0.0 | 0.00 | 0.00 | 0.00 | 89 | 1019.8 |
| 20260830070003 | 63 | 0 | 0.0 | 0.0 | 0.00 | 0.00 | 0.00 | 88 | 1019.8 |
| 20260830065503 | 63 | 0 | 0.0 | 0.0 | 0.00 | 0.00 | 0.00 | 88 | 1019.9 |
| 20260830065003 | 63 | 0 | 0.0 | 0.0 | 0.00 | 0.00 | 0.00 | 88 | 1019.8 |
| 20260830064503 | 63 | 0 | 0.0 | 0.0 | 0.00 | 0.00 | 0.00 | 87 | 1019.8 |
| 20260830064003 | 63 | 0 | 0.0 | 0.0 | 0.00 | 0.00 | 0.00 | 88 | 1019.9 |
| 20260830063718 | 63 | 0 | 0.0 | 0.0 | 0.00 | 0.00 | 0.00 | 88 | 1019.9 |
| 20260830063003 | 63 | 0 | 0.0 | 0.0 | 0.00 | 0.00 | 0.00 | 86 | 1019.9 |
| 20260830062503 | 63 | 0 | 0.0 | 0.0 | 0.00 | 0.00 | 0.00 | 87 | 1019.9 |
| 20260830062003 | 63 | 0 | 0.0 | 0.0 | 0.00 | 0.00 | 0.00 | 86 | 1020.0 |
| 20260830061503 | 63 | 0 | 0.0 | 0.0 | 0.00 | 0.00 | 0.00 | 86 | 1019.9 |
| 20260830061003 | 63 | 0 | 0.0 | 0.0 | 0.00 | 0.00 | 0.00 | 86 | 1019.9 |
| 20260830060503 | 63 | 0 | 0.0 | 0.0 | 0.00 | 0.00 | 0.00 | 87 | 1020.0 |
| 20260830060003 | 63 | 0 | 0.0 | 0.0 | 0.00 | 0.00 | 0.00 | 87 | 1020.0 |
| 20260830055503 | 63 | 0 | 0.0 | 0.0 | 0.00 | 0.00 | 0.00 | 88 | 1020.0 |
| 20260830055003 | 63 | 0 | 0.0 | 0.0 | 0.00 | 0.00 | 0.00 | 88 | 1020.0 |
| 20260830054503 | 63 | 169 | 0.0 | 1.0 | 0.00 | 0.00 | 0.00 | 88 | 1020.0 |
| 20260830054216 | 63 | 169 | 0.0 | 1.0 | 0.00 | 0.00 | 0.00 | 88 | 1020.0 |
| 20260830053503 | 63 | 0 | 0.0 | 0.0 | 0.00 | 0.00 | 0.00 | 88 | 1020.0 |
| 20260830053003 | 63 | 0 | 0.0 | 0.0 | 0.00 | 0.00 | 0.00 | 88 | 1020.0 |
| 20260830052503 | 63 | 0 | 0.0 | 0.0 | 0.00 | 0.00 | 0.00 | 88 | 1020.0 |
| 20260830052003 | 63 | 0 | 0.0 | 0.0 | 0.00 | 0.00 | 0.00 | 88 | 1020.1 |
| 20260830051503 | 63 | 0 | 0.0 | 0.0 | 0.00 | 0.00 | 0.00 | 88 | 1020.1 |
| 20260830051219 | 63 | 0 | 0.0 | 0.0 | 0.00 | 0.00 | 0.00 | 88 | 1020.1 |
| 20260830050503 | 63 | 0 | 0.0 | 0.0 | 0.00 | 0.00 | 0.00 | 88 | 1020.1 |
| 20260830050003 | 63 | 0 | 0.0 | 0.0 | 0.00 | 0.00 | 0.00 | 87 | 1020.2 |
| 20260830045503 | 63 | 0 | 0.0 | 0.0 | 0.00 | 0.00 | 0.00 | 88 | 1020.2 |
| 20260830045003 | 63 | 0 | 0.0 | 0.0 | 0.00 | 0.00 | 0.00 | 88 | 1020.2 |
| 20260830044503 | 63 | 0 | 0.0 | 0.0 | 0.00 | 0.00 | 0.00 | 88 | 1020.2 |
| 20260830044218 | 63 | 0 | 0.0 | 0.0 | 0.00 | 0.00 | 0.00 | 87 | 1020.2 |
| 20260830043717 | 63 | 0 | 0.0 | 0.0 | 0.00 | 0.00 | 0.00 | 87 | 1020.2 |
| 20260830043218 | 63 | 0 | 0.0 | 0.0 | 0.00 | 0.00 | 0.00 | 88 | 1020.2 |
| 20260830042503 | 63 | 0 | 0.0 | 0.0 | 0.00 | 0.00 | 0.00 | 87 | 1020.1 |